CZ-3A R/B, 30324

Orbit data source: Space-Track

CZ-3A R/B, 30324 is space debris in HEO originally from a launch on Fri, 02 Feb 2007 UTC launched from the Xichang Space Center, China (XSC). Debris objects in space refer to the collection of defunct objects orbiting the Earth. Examples of debris include non-operational satellites, rocket bodies, and fragments generated from explosions, collisions, or faulty payload assembly.

Loading next visibility...
Identifier
30324, 2007-003B
Orbit
HEO
Country
Flag of CNCN / PRC
Related business
Manufacturer
CALT
Mission
Spacecraft
Bus & Motor
CZ-3A STAGE 3, Unknown motor
Mass
~2,800 kg wet, ~2,800 kg dry
Launch date (UTC)
2007-02-02 (19 years ago)
Launch vehicle
Unknown
Launch site
Xichang Space Center, China (XSC)
Object type
Payload
Rocket body
Debris
Shape & HBR
Cyl + 1 Nozzle, 6.2 m
Radar Cross Section
32.751 m², Large (>1 m²)

Expand to show TLE details & history
Last TLE update: 3 days ago

TLE from 3 days ago
0 CZ-3A R/B
1 30324U 07003B   26170.88093292  .00007186  00000-0  12908-2 0  9993
2 30324  24.7261 341.1995 5771647 114.0369 315.1567  4.39096020233592
Epoch: 2026-06-19T21:08Z
TLE epoch observation values (Epoch: 2026-06-19T21:08:32.604Z)
Latitude
0.00001°
Longitude
115.95044°
Altitude
7,339.5 km
Speed
5.728 km/s
True Right ascension
22h 44m 45s
True Declination
0° 00' 00"
Sunlit
Object was in daylight at epoch
Visualization orbit readout
Latitude
Unknown
Longitude
Unknown
Altitude
Unknown
Speed
Unknown
Apparent Right ascension
Unknown
Apparent Declination
Unknown
Sunlit
N/A
Visualization observer readout
Local Sidereal Time
23:20:36
Azimuth
Unknown
Elevation
Unknown
Doppler factor
Unknown
Orbital elements
Apogee altitude
18,472.864 km
Perigee altitude
284.376 km
Semi-major axis
15,756.757 km
Eccentricity
0.57716
Inclination
24.7261°
RAAN
341.1995°
Arg. of periapsis
114.0369°
True anomaly
246.05366°
Mean anomaly
315.1567°
Eccentric anomaly
282.92551°
Mean motion
1.09734 °/min
Orbital period
328.06 mins
BSTAR
0.0012908
Loading maneuver chart data...
Computing Atmospheric mass density...
Loading historical data...
Loading historical data...
Loading historical data...
Loading historical data...
Loading historical data...
Loading historical data...
Loading historical data...

Documentation

Showing up to 5 results
|